Weather History for Houghton Lake, MI

Change the Weather History Date:

Tuesday, May 7, 2013

  Actual Average Record
Temperature  
Mean Temperature 59 °F 51 °F  
Max Temperature 78 °F 64 °F 89 °F (1936)
Min Temperature 40 °F 39 °F 20 °F (1928)
Degree Days  
Heating Degree Days 6 14  
Month to date heating degree days 27 105  
Since 1 July heating degree days 7326 7766  
Cooling Degree Days 0 0  
Month to date cooling degree days 6 0  
Year to date cooling degree days 6 2  
Growing Degree Days 8 (Base 50)    
Moisture  
Dew Point 37 °F    
Average Humidity 59    
Maximum Humidity 100    
Minimum Humidity 18    
Precipitation  
Precipitation 0.00 in 0.08 in 1.51 in (1983)
Month to date precipitation 0.00 0.56  
Year to date precipitation 12.30 7.60  
Sea Level Pressure  
Sea Level Pressure 30.06 in    
Wind  
Wind Speed 5 mph (SE)    
Max Wind Speed 16 mph    
Max Gust Speed 20 mph    
Visibility 10 miles    
Events      
T = Trace of Precipitation, MM = Missing Value Source: NWS Daily Summary

Daily Weather History Graph

Daily Weather History Graph

Search for Another Location

Airport:

Trip Planner

Search our weather history database for the weather conditions in past years. The results will help you decide how hot, cold, wet, or windy it might be!

Date:

Astronomy

May. 07, 2013 Rise Set
Actual Time 6:20 AM EDT 8:50 PM EDT
Civil Twilight 5:48 AM EDT 9:23 PM EDT
Nautical Twilight 5:07 AM EDT 10:04 PM EDT
Astronomical Twilight 4:21 AM EDT 10:50 PM EDT
Moon 4:59 AM EDT (5/7) 6:45 PM EDT (5/7)
Length of Visible Light 15h 34m
Length of Day
14h 29m
Waning Crescent, 5% of the Moon is Illuminated
May 7
Waning Crescent
May 9
New
May 18
First Quarter
May 25
Full
May 31
Last Quarter

Hourly Weather History & Observations

Time (EDT) Temp. Windchill Dew Point Humidity Pressure Visibility Wind Dir Wind Speed Gust Speed Precip Events Conditions
12:53 AM 51.1 °F - 33.1 °F 50% 30.06 in 10.0 mi East 5.8 mph - N/A   Clear
1:53 AM 48.0 °F - 36.0 °F 63% 30.06 in 10.0 mi East 3.5 mph - N/A   Clear
2:53 AM 43.0 °F 41.3 °F 39.0 °F 86% 30.06 in 10.0 mi East 3.5 mph - N/A   Clear
3:53 AM 43.0 °F - 37.9 °F 82% 30.06 in 10.0 mi Calm Calm - N/A   Clear
4:53 AM 42.1 °F - 39.0 °F 89% 30.06 in 10.0 mi Calm Calm - N/A   Clear
5:53 AM 39.9 °F 37.8 °F 37.9 °F 93% 30.07 in 10.0 mi ENE 3.5 mph - N/A   Clear
6:53 AM 39.9 °F - 39.0 °F 97% 30.09 in 10.0 mi Calm Calm - N/A   Clear
7:53 AM 50.0 °F - 39.0 °F 66% 30.10 in 10.0 mi Calm Calm - N/A   Clear
8:53 AM 61.0 °F - 36.0 °F 39% 30.10 in 10.0 mi Calm Calm - N/A   Clear
9:53 AM 69.1 °F - 35.1 °F 29% 30.10 in 10.0 mi SE 4.6 mph - N/A   Clear
10:53 AM 71.1 °F - 37.9 °F 30% 30.10 in 10.0 mi Variable 4.6 mph - N/A   Clear
11:53 AM 73.0 °F - 30.9 °F 21% 30.09 in 10.0 mi Variable 4.6 mph - N/A   Clear
12:53 PM 75.0 °F - 30.9 °F 20% 30.08 in 10.0 mi Variable 5.8 mph - N/A   Clear
1:53 PM 75.9 °F - 28.9 °F 18% 30.06 in 10.0 mi Variable 5.8 mph - N/A   Clear
2:53 PM 77.0 °F - 32.0 °F 19% 30.06 in 10.0 mi Variable 4.6 mph 16.1 mph N/A   Clear
3:53 PM 78.1 °F - 39.9 °F 25% 30.04 in 10.0 mi South 9.2 mph - N/A   Partly Cloudy
4:53 PM 77.0 °F - 39.9 °F 26% 30.03 in 10.0 mi SE 11.5 mph - N/A   Clear
5:53 PM 75.0 °F - 37.9 °F 26% 30.03 in 10.0 mi South 8.1 mph 17.3 mph N/A   Clear
6:53 PM 73.9 °F - 37.9 °F 27% 30.04 in 10.0 mi South 9.2 mph - N/A   Clear
7:53 PM 71.1 °F - 43.0 °F 36% 30.03 in 10.0 mi South 8.1 mph - N/A   Clear
8:53 PM 66.9 °F - 42.1 °F 40% 30.03 in 10.0 mi SE 6.9 mph - N/A   Clear
9:53 PM 62.1 °F - 41.0 °F 46% 30.04 in 10.0 mi SE 5.8 mph - N/A   Clear
10:53 PM 57.9 °F - 41.0 °F 53% 30.05 in 10.0 mi ESE 4.6 mph - N/A   Clear
11:53 PM 57.9 °F - 37.0 °F 46% 30.06 in 10.0 mi SE 5.8 mph - N/A   Clear